星链-31006 (STARLINK-31006 )

导读

STARLINK-31006是美国SpaceX公司于2024年2月25日发射的星链(Starlink)卫星,属于第二代星链星座的组网卫星,运行在近地低轨轨道。它配备增强型相控阵天线与激光星间链路,支持高速低延迟通信,可为偏远地区、海洋及航空场景提供宽带互联网服务,助力星链实现全球网络覆盖目标,推动卫星互联网规模化部署。

Basic Information
目录编号:
59024
目录名称:
STARLINK-31006
国际标识:
2024-038B
轨道中心:
EARTH
卫星名称:
星链-31006
卫星全名:
星链-31006 (STARLINK-31006 )
卫星状态:
在轨 (已飞行929 天)
发射日期:
2024-02-25 UTC
国别 :
美国 (US)
星等 :
--
This satellite is enrolled in the Space Conjunction Data Service (SCDS) and the current flight risk assessment level is: High Risk
Orbit Information
数据来源 国际轨道数据 AOE轨道数据
星历时间 2026-09-10T08:47:46+0800
1天前
查看轨道信息
2026-09-07T02:00:00+0800
5天前
查看轨道信息
半长轴 6861.199km 6861.155km
偏心率 0.0001754 0.0001688
轨道倾角 43.004° 43.004°
近地点辐角 271.039° 193.038°
升交点赤经 15.535° 34.079°
平近点角 89.026° 90.792°
近地点 481.858km 481.859km
远地点 484.266km 484.177km
周期 94.267分钟 94.266分钟
每日圈数 15.275757 15.275906
Detailed Information
固有亮度:
5
最大亮度:
0.3
卫星平台:
Starlink v2.0 mini
覆盖范围:
全球
运营商:
太空探索技术公司
运营商所在国:
美国
制造商(研发单位):
太空探索技术公司
制造商所在国:
美国
使用方式:
暂无
Satellite Introduction
星链(Starlink)计划是由太空探索技术公司(SpaceX)提出的一个巨型低轨卫星互联网星座项目,计划在2019年至2024年间在太空搭建由约1.2万颗卫星组成的“星链”网络,其中1584颗将部署在地球上空550千米处的近地轨道,并从2020年开始工作。该卫星仍在工作。
2D Orbit Map
3D Orbit Map
Orbit Altitude Analysis Chart
Orbit Inclination Analysis Chart
Orbit Comprehensive Analysis Chart
View Comprehensive Chart
Conjunction Data List
Event ID Objects TCA Miss Dist (km) Collision Risk Probability Collision Risk Index (CRI) Action
CDM_260912-213405-902406-379221
2026-09-12T
21:34:54+0000
0.278 km
中距离
3.963651E-4 高风险 0.87
CDM_260911-153905-902406-651122
2026-09-11T
15:39:27+0000
0.541 km
远距离
4.072623E-5 中风险 0.67
CDM_260913-030405-902406-379221
2026-09-13T
03:04:26+0000
1.330 km
极远距离
5.66229E-6 低风险 0.5
CDM_260911-162605-902406-651122
2026-09-11T
16:26:32+0000
1.236 km
极远距离
2.698125E-6 低风险 0.44
CDM_260911-180005-902406-651121
2026-09-11T
18:00:41+0000
1.245 km
极远距离
2.633883E-6 低风险 0.43
CDM_260911-140505-902406-651122
2026-09-11T
14:05:18+0000
1.609 km
极远距离
1.219477E-6 低风险 0.37
CDM_260913-043805-902406-379221
2026-09-13T
04:38:35+0000
2.821 km
极远距离
9.01877E-7 极低风险 0.34
CDM_260911-171305-902406-651121
2026-09-11T
17:13:36+0000
2.714 km
极远距离
4.317015E-7 极低风险 0.28
Miss Distance Evolution Trend with All Objects
Collision Probability Evolution Trend with All Objects